TimeEST,TemperatureF,Dew PointF,Humidity,Sea Level PressureIn,VisibilityMPH,Wind Direction,Wind SpeedMPH,Gust SpeedMPH,PrecipitationIn,Events,Conditions,WindDirDegrees,DateUTC
12:15 AM,39.9,11.5,31,30.07,10.0,WSW,6.9,-,N/A,,Clear,250,2013-02-20 05:15:00
12:35 AM,39.6,11.5,32,30.07,10.0,West,6.9,-,N/A,,Clear,280,2013-02-20 05:35:00
12:55 AM,38.8,7.7,28,30.09,10.0,WSW,5.8,-,N/A,,Clear,250,2013-02-20 05:55:00
1:15 AM,38.7,6.4,26,30.08,10.0,West,6.9,-,N/A,,Clear,270,2013-02-20 06:15:00
1:35 AM,38.1,7.2,28,30.08,10.0,West,10.4,16.1,N/A,,Clear,260,2013-02-20 06:35:00
1:55 AM,37.4,6.4,28,30.07,10.0,WSW,5.8,-,N/A,,Clear,250,2013-02-20 06:55:00
2:15 AM,36.7,5.9,28,30.07,10.0,West,8.1,-,N/A,,Clear,260,2013-02-20 07:15:00
2:35 AM,36.0,6.4,29,30.06,10.0,West,5.8,-,N/A,,Clear,260,2013-02-20 07:35:00
2:55 AM,35.6,7.3,31,30.07,10.0,WSW,3.5,-,N/A,,Clear,250,2013-02-20 07:55:00
3:15 AM,34.9,7.9,32,30.07,10.0,WSW,6.9,-,N/A,,Clear,240,2013-02-20 08:15:00
3:35 AM,34.9,7.7,32,30.07,10.0,West,3.5,-,N/A,,Clear,260,2013-02-20 08:35:00
3:55 AM,35.1,8.2,33,30.07,10.0,West,3.5,-,N/A,,Clear,260,2013-02-20 08:55:00
4:15 AM,33.4,8.8,36,30.06,10.0,WSW,3.5,-,N/A,,Clear,250,2013-02-20 09:15:00
4:35 AM,32.5,9.3,38,30.07,10.0,WSW,3.5,-,N/A,,Clear,240,2013-02-20 09:35:00
4:55 AM,33.3,8.2,35,30.07,10.0,WSW,3.5,-,N/A,,Clear,240,2013-02-20 09:55:00
5:15 AM,32.7,8.2,36,30.06,10.0,WSW,3.5,-,N/A,,Clear,250,2013-02-20 10:15:00
5:35 AM,32.4,6.8,34,30.06,10.0,Calm,Calm,-,N/A,,Clear,0,2013-02-20 10:35:00
5:55 AM,32.7,6.8,34,30.06,10.0,West,4.6,-,N/A,,Clear,270,2013-02-20 10:55:00
6:15 AM,32.7,6.1,33,30.06,10.0,WSW,3.5,-,N/A,,Clear,240,2013-02-20 11:15:00
6:35 AM,31.3,7.5,37,30.06,10.0,WSW,3.5,-,N/A,,Clear,250,2013-02-20 11:35:00
7:15 AM,32.0,6.8,35,30.07,10.0,WSW,5.8,-,N/A,,Clear,250,2013-02-20 12:15:00
7:35 AM,26.2,14.0,60,30.07,10.0,Calm,Calm,-,N/A,,Clear,0,2013-02-20 12:35:00
7:55 AM,26.4,17.6,69,30.07,10.0,Calm,Calm,-,N/A,,Clear,0,2013-02-20 12:55:00
8:15 AM,32.5,19.8,59,30.08,10.0,Calm,Calm,-,N/A,,Clear,0,2013-02-20 13:15:00
9:15 AM,40.1,1.6,20,30.09,10.0,SSW,4.6,-,N/A,,Clear,200,2013-02-20 14:15:00
9:35 AM,41.0,3.0,21,30.09,10.0,Calm,Calm,-,N/A,,Clear,0,2013-02-20 14:35:00
10:15 AM,44.2,3.2,18,30.10,10.0,WSW,10.4,-,N/A,,Clear,240,2013-02-20 15:15:00
10:35 AM,44.6,1.2,17,30.10,10.0,SW,9.2,-,N/A,,Clear,230,2013-02-20 15:35:00
10:55 AM,45.5,-1.1,14,30.10,10.0,WSW,10.4,-,N/A,,Clear,240,2013-02-20 15:55:00
11:15 AM,46.4,-1.7,14,30.10,10.0,WSW,11.5,-,N/A,,Clear,240,2013-02-20 16:15:00
11:35 AM,47.7,0.1,14,30.11,10.0,WSW,8.1,-,N/A,,Clear,240,2013-02-20 16:35:00
11:55 AM,48.2,-1.1,13,30.09,10.0,West,9.2,-,N/A,,Clear,270,2013-02-20 16:55:00
12:15 PM,49.1,-0.9,13,30.09,10.0,West,6.9,-,N/A,,Clear,270,2013-02-20 17:15:00
12:35 PM,50.4,-3.1,11,30.08,10.0,West,5.8,-,N/A,,Clear,270,2013-02-20 17:35:00
12:55 PM,51.6,-3.8,10,30.07,10.0,WNW,5.8,9.2,N/A,,Clear,300,2013-02-20 17:55:00
1:15 PM,52.2,-2.0,11,30.06,10.0,WNW,6.9,-,N/A,,Clear,290,2013-02-20 18:15:00
1:35 PM,52.5,-4.4,10,30.06,10.0,NW,3.5,-,N/A,,Clear,320,2013-02-20 18:35:00
1:55 PM,53.1,-2.0,10,30.06,10.0,West,3.5,-,N/A,,Clear,260,2013-02-20 18:55:00
2:15 PM,53.1,-4.0,10,30.05,10.0,West,3.5,-,N/A,,Clear,280,2013-02-20 19:15:00
2:35 PM,53.2,-6.0,9,30.04,10.0,SSW,9.2,-,N/A,,Clear,210,2013-02-20 19:35:00
2:55 PM,53.6,-3.1,10,30.05,10.0,West,6.9,17.3,N/A,,Clear,280,2013-02-20 19:55:00
3:15 PM,52.3,-6.9,9,30.05,10.0,WSW,8.1,-,N/A,,Clear,240,2013-02-20 20:15:00
3:35 PM,52.0,-5.4,9,30.05,10.0,West,8.1,-,N/A,,Clear,260,2013-02-20 20:35:00
3:55 PM,52.0,-4.7,10,30.06,10.0,West,6.9,-,N/A,,Clear,260,2013-02-20 20:55:00
4:15 PM,51.8,-6.2,9,30.06,10.0,West,5.8,-,N/A,,Clear,280,2013-02-20 21:15:00
4:35 PM,51.8,-4.5,10,30.07,10.0,West,5.8,-,N/A,,Clear,270,2013-02-20 21:35:00
4:55 PM,50.9,-5.1,10,30.07,10.0,West,5.8,-,N/A,,Clear,270,2013-02-20 21:55:00
5:15 PM,50.0,-4.5,10,30.08,10.0,West,6.9,-,N/A,,Clear,280,2013-02-20 22:15:00
5:35 PM,49.3,-5.3,10,30.09,10.0,WSW,4.6,-,N/A,,Clear,250,2013-02-20 22:35:00
5:55 PM,48.0,-2.9,12,30.10,10.0,West,3.5,-,N/A,,Clear,260,2013-02-20 22:55:00
6:15 PM,46.9,-2.7,13,30.12,10.0,West,4.6,-,N/A,,Clear,270,2013-02-20 23:15:00
6:35 PM,46.2,-4.0,12,30.12,10.0,West,5.8,-,N/A,,Clear,270,2013-02-20 23:35:00
6:55 PM,44.8,-3.5,13,30.12,10.0,Calm,Calm,-,N/A,,Clear,0,2013-02-20 23:55:00
7:15 PM,37.9,14.4,38,30.13,10.0,Calm,Calm,-,N/A,,Clear,0,2013-02-21 00:15:00
7:35 PM,42.3,0.3,17,30.13,10.0,NNW,6.9,-,N/A,,Clear,340,2013-02-21 00:35:00
7:55 PM,42.8,-4.0,14,30.13,10.0,North,5.8,-,N/A,,Clear,350,2013-02-21 00:55:00
8:15 PM,42.3,-3.8,14,30.14,10.0,NNW,5.8,-,N/A,,Clear,340,2013-02-21 01:15:00
8:35 PM,39.9,-2.6,17,30.13,10.0,Calm,Calm,-,N/A,,Clear,0,2013-02-21 01:35:00
8:55 PM,33.6,6.1,32,30.13,10.0,North,3.5,-,N/A,,Clear,360,2013-02-21 01:55:00
9:15 PM,33.1,6.1,32,30.13,10.0,Calm,Calm,-,N/A,,Clear,0,2013-02-21 02:15:00
9:35 PM,33.1,5.0,31,30.14,10.0,NNE,4.6,-,N/A,,Clear,20,2013-02-21 02:35:00
10:15 PM,34.2,4.1,28,30.15,10.0,NNE,3.5,-,N/A,,Clear,20,2013-02-21 03:15:00
10:35 PM,35.4,2.3,25,30.16,10.0,North,4.6,-,N/A,,Clear,10,2013-02-21 03:35:00
10:55 PM,34.7,3.4,27,30.14,10.0,North,5.8,-,N/A,,Clear,350,2013-02-21 03:55:00
11:15 PM,33.8,4.1,29,30.13,10.0,North,3.5,-,N/A,,Clear,10,2013-02-21 04:15:00
11:35 PM,29.1,13.3,52,30.14,10.0,Calm,Calm,-,N/A,,Clear,0,2013-02-21 04:35:00
11:55 PM,27.0,10.2,49,30.14,10.0,Calm,Calm,-,N/A,,Clear,0,2013-02-21 04:55:00